ARABSAT-5C

Last updated on Wed Dec 17 2025 00:02:50 GMT+0000 (Coordinated Universal Time)

1 37810U 11049B 25350.27510615 .00000147 00000+0 00000+0 0 9996 2 37810 0.0507 13.2600 0003946 234.9455 315.9952 1.00271192 52205
UTC large
Height (km)
Speed (km/s)
/
Latitude / Longitude
Inclination (degrees)
Orbital Period (minutes)
Azimuth
Elevation
Range (km)
Doppler Factor

Next 0 passes for location: London (51.5072 / 0.1276)

Sorry there are no passes over London.